Location: Saratoga Springs
(43.0831°N, 73.7850°W)
Time: 17:25:37
(UTC-04:00)

Tiros 1 despin weight - Pass Details

Date: 18 April 2024
Orbit: 578 x 620 km, 48.2° (Epoch: 29 May)

Event Time Altitude Azimuth Distance (km) Brightness Sun altitude
Rises 15:18:41 0° 254° (WSW) 2,833 ? 45.4°
Reaches altitude 10° 15:20:58 10° 257° (WSW) 1,940 ? 45.0°
Maximum altitude 15:25:24 67° 340° (NNW) 660 ? 44.4°
Drops below altitude 10° 15:29:55 10° 64° (ENE) 1,972 ? 43.7°
Sets 15:32:16 0° 67° (ENE) 2,884 ? 43.3°
